Location: Brookview Estates
(36.0476°N, 86.6931°W)
Time: 18:11:53
(UTC+00:00)

Cosmos 304 Rocket - Pass Details

Date: 30 March 2020
Orbit: 679 x 687 km, 74.0° (Epoch: 01 June)

Event Time Altitude Azimuth Distance (km) Brightness Sun altitude
Rises 00:42:27 0° 351° (N) 3,043 7.4 -8.0°
Reaches altitude 10° 00:44:56 10° 0° (N) 2,124 6.4 -8.5°
Maximum altitude 00:49:19 36° 67° (ENE) 1,082 4.4 -9.3°
Drops below altitude 10° 00:53:41 10° 134° (SE) 2,112 5.8 -10.2°
Enters shadow 00:54:01 - 135° (SE) 2,231 5.9 -10.3°
